User: anonymous   Login
Location: Toronto
(43.6672°N, 79.4170°W)
Time: 08:45:54
(UTC-05:00)
Language:

ISS - Orbit

View from above orbital plane
View from above orbital plane
View from above satellite
View from above satellite

Ground track
Ground track

The orbit data is extracted from the following two-line orbital elements,

1 25544U 98067A   14354.09649390  .00026138  00000-0  42465-3 0  5942
2 25544 051.6475 257.6286 0007924 153.5025 347.7492 15.52496423920175
Epoch (UTC): 20 December 2014 02:18:57
Eccentricity: 0.0007924
inclination: 51.6475°
perigee height: 404 km
apogee height: 415 km
right ascension of ascending node: 257.6286°
argument of perigee: 153.5025°
revolutions per day: 15.52496423
mean anomaly at epoch: 347.7492°
orbit number at epoch: 92017

The dashed part of the orbit path shows where the satellite is in the earth's shadow,  

DLR